Regional Weather Roundup
Issued by NWS

Home | Current Version | Previous Version | Text Only | Print | Product List | Glossary Off
Versions: 1 2 3 4 5 6 7 8 9 10 11 12 13 14 15 16 17 18 19 20 21 22 23 24 25 26 27 28 29 30 31 32 33 34 35 36 37 38 39 40 41 42 43 44 45 46 47 48 49 50

000
ASUS43 KDTX 240710
RWRMI
MICHIGAN HOURLY REGIONAL WEATHER ROUNDUP
NATIONAL WEATHER SERVICE DETROIT/PONTIAC MI
300 AM EDT WED AUG 24 2016

NOTE: "FAIR" INDICATES FEW OR NO CLOUDS BELOW 12,000 FEET WITH NO
SIGNIFICANT WEATHER AND/OR OBSTRUCTION TO VISIBILITY.

MIZ047>049-052>055-059>063-066>070-074>076-081>083-240800-
SOUTHEAST LOWER MICHIGAN

CITY           SKY/WX    TMP DP  RH WIND       PRES   REMARKS
ADRIAN         CLEAR     62  60  93 SW3       30.17F
ALMA           CLEAR     64  61  92 S6        30.12F
ANN ARBOR      FOG       55  55 100 CALM      30.16F VSB 1/4
BAD AXE        CLEAR     62  58  88 S3        30.15F
CARO           CLEAR     58  58  98 CALM      30.14F
DETROIT CITY   CLEAR     66  63  90 S5        30.17F
DETROIT        PTCLDY    66  62  87 S5        30.17F
FLINT          CLEAR     65  59  81 S6        30.15F
GROSSE ILE     CLEAR     71  63  74 SW7       30.17S
HILLSDALE      CLEAR     61  58  90 S3        30.17S
HOWELL         CLEAR     63  60  88 S6        30.15F

CITY           SKY/WX    TMP DP  RH WIND       PRES   REMARKS
JACKSON        CLEAR     63  60  90 S7        30.16F
LAMBERTVILLE   CLOUDY    65  60  82 CALM      30.18S
LANSING        CLEAR     65  58  78 S7        30.14F
LAPEER         FAIR      61  59  94 CALM      30.16F
MASON          CLEAR     62  58  87 CALM      30.15F
MONROE         CLEAR     64  60  87 S5        30.17S
MT. CLEMENS    PTCLDY    66  64  92 S5        30.15F
PONTIAC        CLEAR     65  59  81 S3        30.16F
PORT HOPE        N/A     67  59  75 VRB5      30.12
PORT HURON     CLEAR     61  59  94 CALM      30.17F
TRI CITIES     CLEAR     65  61  87 S9        30.12F
MIDLAND        FAIR      65  59  82 S5        30.11F
TROY           CLEAR     67  61  79 CALM      30.18F
SAGINAW HB     PTCLDY    63  59  88 S6        30.12F
$$
MIZ043>046-050>051-056>058-064>065-071>073-077>080-240800-
SOUTHWEST LOWER MICHIGAN

CITY           SKY/WX    TMP DP  RH WIND       PRES   REMARKS
BATTLE CREEK   CLEAR     62  60  93 S9        30.14F
BENTON HARBOR  PTCLDY    67  61  81 S6        30.10F
BIG RAPIDS     CLEAR     60  58  96 CALM      30.10S
COLDWATER      CLEAR     62  61  94 SE5       30.15F
FREMONT        FAIR      63  60  88 SE3       30.08F
HOLLAND        CLEAR     64  60  87 S7        30.10F
GRAND RAPIDS   CLEAR     62  58  86 S7        30.11F
IONIA          FAIR      61  57  88 S7        30.11F
KALAMAZOO      CLEAR     66  59  78 S7        30.13S
LUDINGTON      CLEAR     68  63  85 S6        30.05S
MARSHALL       CLEAR     63  59  88 SE3       30.14F
MOUNT PLEASANT CLEAR     64  59  85 S3        30.10F
MUSKEGON       CLEAR     67  61  81 S7        30.08F
SOUTH HAVEN    CLOUDY    67  63  86 S3        30.10F
$$
MIZ016>042-240800-
NORTHERN LOWER MICHIGAN

CITY           SKY/WX    TMP DP  RH WIND       PRES   REMARKS
ALPENA         CLOUDY    65  58  78 S6        30.09F
BEAVER ISLAND  PTCLDY    69  62  78 S6        30.02F
BELLAIRE       CLOUDY    67  59  77 CALM      30.06F
CADILLAC       CLEAR     64  59  82 S7        30.09S
CHARLEVOIX     MOCLDY    65  60  81 S5        30.07F
FRANKFORT      PTCLDY    69  61  75 S8        30.04F
GAYLORD        CLOUDY    63  58  83 S6        30.09F
GRAYLING       PTCLDY    57  56  96 CALM      30.10F
HARBOR SPRINGS CLOUDY    66  60  79 S3        30.05F
HOUGHTON LAKE  PTCLDY    65  59  81 S7        30.11F
MANISTEE       CLEAR     62  59  90 E5        30.05F
OSCODA         CLEAR     60  60  97 CALM      30.10F
PELLSTON       CLOUDY    62  57  83 SE3       30.05F
ROGERS CITY    PTCLDY    64  58  81 SW5       30.09S
TRAVERSE CITY  CLOUDY    66  59  78 CALM      30.04F
$$
MIZ007>008-015-240800-
EASTERN UPPER MICHIGAN

CITY           SKY/WX    TMP DP  RH WIND       PRES   REMARKS
KINROSS        CLEAR     63  59  87 S7        30.04F
MACKINAC ISLAN CLEAR     67  59  76 S9        30.04F
NEWBERRY       CLOUDY    66  63  90 S10G17    30.00F
S. S. MARIE    CLEAR     64  60  87 SE3       30.03F
MUNISING         N/A     68  64  87 S10       29.95
$$
MIZ004>006-011>014-085-240800-
CENTRAL UPPER MICHIGAN

CITY           SKY/WX    TMP DP  RH WIND       PRES   REMARKS
MANISTIQUE     MOCLDY    65  63  92 S5        29.99F
ESCANABA       CLOUDY    68  65  90 S6        29.97F
MENOMINEE      CLOUDY   N/A N/A N/A S9        29.96F
SAWYER-GWINN   PTCLDY    63  61  94 SW8       29.97S
$$
MIZ001>003-009>011-084-240800-
WESTERN UPPER MICHIGAN

CITY           SKY/WX    TMP DP  RH WIND       PRES   REMARKS
IRON MOUNTAIN  CLOUDY    64  60  87 SE6       29.95F
HOUGHTON       PTCLDY    67  61  81 S6        29.90F
COPPER HARBOR    N/A     70  63  78 W7        29.88F
IRONWOOD       CLOUDY    69  63  81 S8G17     29.87F
$$

ABBREVIATIONS USED IN REMARKS
   TC - TEMPERATURE IN CELSIUS
  WCI - WIND CHILL INDEX
   HX - HEAT INDEX
  VSB - VISIBILITY





USA.gov is the U.S. government's official web portal to all federal, state and local government web resources and services.